Home > Weather > Ulaanbaatar > Past weeks

Flag for Mongolia Weather for the Past 2 Weeks in Ulaanbaatar, Mongolia

Now
59 °F

Passing clouds.


Feels Like: 57 °F
Forecast: 37 / 53 °F
Wind: 10 mph from Southwest

Location: Ulan-Bator

Current Time: May 6, 2016 at 6:18:34 PM

Latest Report: May 6, 2016 at 6:00 PM


Visibility: N/A

Pressure: 29.83 "Hg (25.57 "Hg at 1298m altitude)

Humidity: 12%

Dew Point: 7 °F

Location of UlaanbaatarLocation

Historic Weather in Ulaanbaatar — Graph

°F

Ulaanbaatar Temperature Yesterday

Maximum temperature yesterday: 37 °F (at 6:00 PM)
Minimum temperature yesterday: 21 °F (at 4:00 AM)
Average temperature yesterday: 28 °F

High & Low Weather Summary for the Past Weeks

 TemperatureHumidityPressure
High66 °F (Apr 29, 6:00 PM)100% (May 1, 2:30 AM)30.12 "Hg (May 1, 2:30 AM)
Low19 °F (Apr 22, 5:00 AM)11% (Apr 23, 1:00 PM)29.39 "Hg (Apr 30, 4:00 AM)
Average41 °F49%29.84 "Hg
* Reported Apr 21 5:00 PM — May 6 5:30 PM, Ulaanbaatar, Weather by CustomWeather, © 2016

Note: Actual official high and low records may vary slightly from our data, if they occured in-between our weather recording intervals... More about our weather records

Advertising

Ulaanbaatar Weather History for the Previous 24 Hours

Scroll right to see more
 ConditionsComfort  
Time TempWeatherWind HumidityBarometerVisibility
5:30 PM
Fri, May 6
59 °FPassing clouds.13 mph13%29.86 "HgN/A
5:00 PM59 °FPassing clouds.17 mph13%29.89 "HgN/A
4:30 PM59 °FPassing clouds.13 mph13%29.89 "HgN/A
4:00 PM57 °FPassing clouds.13 mph15%29.92 "HgN/A
3:30 PM55 °FPassing clouds.13 mph18%29.95 "HgN/A
3:00 PM55 °FPassing clouds.13 mph19%29.98 "HgN/A
2:30 PM52 °FPassing clouds.10 mph24%29.98 "HgN/A
2:00 PM52 °FSunny.8 mph22%30.01 "Hg10 mi
1:30 PM50 °FSunny.6 mph25%30.01 "Hg10 mi
1:00 PM48 °FSunny.6 mph25%30.04 "Hg10 mi
12:30 PM48 °FSunny.6 mph25%30.07 "Hg10 mi
12:00 PM46 °FPassing clouds.8 mph27%30.07 "HgN/A
11:30 AM45 °FSunny.6 mph31%30.09 "Hg10 mi
11:00 AM41 °FSunny.1 mph45%30.09 "Hg10 mi
10:30 AM37 °FSunny.1 mph56%30.12 "Hg10 mi
10:00 AM34 °FSunny.1 mph65%30.12 "Hg10 mi
9:30 AM32 °FSunny.No wind75%30.12 "Hg10 mi
9:00 AM28 °FSunny.No wind80%30.12 "Hg10 mi
8:30 AM28 °FSunny.No wind80%30.12 "Hg10 mi
8:00 AM25 °FClear.No wind86%30.12 "Hg10 mi
7:30 AM23 °FClear.1 mph80%30.12 "Hg10 mi
7:00 AM21 °FClear.No wind86%30.12 "Hg10 mi
6:30 AM19 °FClear.1 mph86%30.12 "Hg10 mi
6:00 AM23 °FClear.No wind86%30.12 "Hg10 mi
5:30 AM21 °FClear.No wind86%30.12 "Hg10 mi
5:00 AM21 °FClear.3 mph86%30.12 "Hg10 mi
4:30 AM21 °FClear.1 mph86%30.12 "Hg10 mi
4:00 AM23 °FClear.3 mph86%30.12 "Hg10 mi
3:30 AM25 °FClear.3 mph80%30.12 "Hg10 mi
3:00 AM23 °FClear.1 mph86%30.12 "Hg10 mi
2:30 AM23 °FClear.1 mph86%30.12 "Hg10 mi
2:00 AM23 °FClear.3 mph86%30.12 "Hg10 mi
1:30 AM25 °FClear.3 mph86%30.12 "Hg10 mi
1:00 AM25 °FClear.1 mph80%30.12 "Hg10 mi
12:30 AM27 °FClear.1 mph80%30.12 "Hg10 mi
12:00 AM27 °FClear.6 mph80%30.12 "Hg10 mi
11:30 PM
Thu, May 5
27 °FClear.3 mph80%30.12 "Hg10 mi
11:00 PM30 °FSunny.1 mph69%30.12 "Hg10 mi
10:30 PM30 °FSunny.1 mph69%30.09 "Hg10 mi
10:00 PM32 °FPassing clouds.6 mph60%30.09 "HgN/A
9:30 PM34 °FSunny.3 mph60%30.09 "Hg10 mi
9:00 PM37 °FPassing clouds.8 mph48%30.07 "HgN/A
8:30 PM37 °FPassing clouds.15 mph48%30.07 "HgN/A
8:00 PM37 °FPassing clouds.17 mph45%30.07 "HgN/A
7:30 PM37 °FScattered clouds.22 mph45%30.07 "HgN/A
7:00 PM37 °FScattered clouds.24 mph45%30.07 "HgN/A
6:30 PM37 °FScattered clouds.22 mph45%30.07 "HgN/A
6:00 PM37 °FScattered clouds.22 mph45%30.07 "HgN/A
Weather by CustomWeather, © 2016

See weather overviewHow to use our weather pages